User: anonymous   Login
Location: NJAA Observatory
(40.6819°N, 74.8979°W)
Time: 06:19:52
(UTC-04:00)
Language:

Cosmos 220 Rocket - Orbit

View from above orbital plane
View from above orbital plane
View from above satellite
View from above satellite

Ground track
Ground track

The orbit data is extracted from the following two-line orbital elements,

1 03230U 68040B   14296.41810290  .00003315  00000-0  36033-3 0  3919
2 03230 074.0401 018.1499 0032207 229.3825 130.4553 14.88149854491426
Epoch (UTC): 23 October 2014 10:02:04
Eccentricity: 0.0032207
inclination: 74.0401°
perigee height: 581 km
apogee height: 626 km
right ascension of ascending node: 18.1499°
argument of perigee: 229.3825°
revolutions per day: 14.88149854
mean anomaly at epoch: 130.4553°
orbit number at epoch: 49142

The dashed part of the orbit path shows where the satellite is in the earth's shadow,  

DLR